Skip Page Navigation
NASA JPL Caltech
NASA Logo - Jet Propulsion Laboratory + View the NASA Portal
+ Near-Earth Object (NEO) Program
Search JPL
JPL Home Earth Solar System Stars & Galaxies Technology
JPL Solar System Dynamics
BODIES ORBITS EPHEMERIDES TOOLS PHYSICAL DATA DISCOVERY FAQ SITE MAP
JPL Small-Body Database Browser
Search: [ help ]  
(2011 OV18)
Classification: Apollo [NEO, PHA]          SPK-ID: 3574344
Ephemeris | Orbit Diagram | Orbital Elements | Physical Parameters | Close-Approach Data ]

[ hide orbit diagram ]
Orbit Diagram
Note: Make sure you have Java enabled on your browser to see the applet. This applet is provided as a 3D orbit visualization tool. The applet was implemented using 2-body methods, and hence should not be used for determining accurate long-term trajectories (over several years or decades) or planetary encounter circumstances. For accurate long-term ephemerides, please instead use our Horizons system.
Orbit Viewer

Additional Notes: the orbits shown in the applet are color coded. The planets are white lines, and the asteroid/comet is a blue line. The bright white line indicates the portion of the orbit that is above the ecliptic plane, and the darker portion is below the ecliptic plane. Likewise for the asteroid/comet orbit, the light blue indicates the portion above the ecliptic plane, and the dark blue the portion below the ecliptic plane.

Orbit Viewer applet originally written and kindly provided by Osamu Ajiki (AstroArts), and further modified by Ron Baalke (JPL).


Orbital Elements at Epoch 2456400.5 (2013-Apr-18.0) TDB
Reference: JPL 11 (heliocentric ecliptic J2000)
 Element Value Uncertainty (1-sigma)   Units 
e .4391614846586482 1.3541e-07  
a 1.630607331987457 3.3011e-07 AU
q .9145073951765682 1.5864e-07 AU
i 16.92632324558865 6.6403e-05 deg
node 271.3689977872203 0.00017643 deg
peri 148.8746269882826 0.0001361 deg
M 240.1535041536931 7.9963e-05 deg
tp 2456653.689302664022
(2013-Dec-27.18930266)
0.00023863 JED
period 760.5407927482305
2.08
0.00023095
6.323e-07
d
yr
n .4733473910046722 1.4374e-07 deg/d
Q 2.346707268798346 4.7508e-07 AU
  Orbit Determination Parameters
   # obs. used (total)      50  
   data-arc span      732 days (2.00 yr)  
   first obs. used      2010-01-08  
   last obs. used      2012-01-10  
   planetary ephem.      DE405  
   SB-pert. ephem.      SB405-CPV-2  
   condition code      1  
   fit RMS      .5435  
   data source      ORB  
   producer      Otto Matic  
   solution date      2012-Jan-11 10:50:15  

Additional Information
 Earth MOID = .0236677 AU 
 T_jup = 4.153 
[ show covariance matrix ]

Ephemeris | Orbit Diagram | Orbital Elements | Physical Parameters | Close-Approach Data ]

Physical Parameter Table
Parameter Symbol Value Units Sigma Reference Notes
absolute magnitude H 19.613 mag .45058 11 autocmod 2.5b

[ show close-approach data ]
Alternate Designations
 2011 OV18 = 2010 AJ92 
Ephemeris | Orbit Diagram | Orbital Elements | Physical Parameters | Close-Approach Data ]
ABOUT SSD CREDITS/AWARDS PRIVACY/COPYRIGHT GLOSSARY LINKS
FirstGov 2013-May-22 11:47 UT
(server date/time)  
NASA Home Page
Site Manager:   Donald K. Yeomans
Webmaster  Alan B. Chamberlin